Weather observations for the past three days for
Manhattan, Manhattan Municipal Airport
Imperial (Metric)
Date Time (cdt) Wind (mph) Vis. (mi.) Weather Sky Cond. Temperature (ºF) Relative Humidity Wind Chill (°F) Heat Index (°F) Pressure Precipitation (in)
Air Dwpt 6 hour altimeter (in) sea level (mb) 1 hr 3 hr 6 hr
Max. Min.
22 03:52 S 15 G 26 10.00 Fair CLR 81 68 65% 84 29.92 1011.8
22 02:52 S 14 G 28 10.00 Fair CLR 81 68 65% 84 29.94 1012.6
22 01:52 S 14 G 28 10.00 Fair CLR 82 68 63% 85 29.95 1013.0
22 00:52 S 10 G 20 10.00 Fair CLR 81 68 90 81 65% 84 29.97 1013.5
21 23:52 S 12 10.00 Fair CLR 82 68 63% 85 29.97 1013.6
21 21:52 S 8 10.00 Fair CLR 82 70 67% 86 29.95 1013.1
21 20:52 S 8 10.00 Fair CLR 84.9 71.1 63% 90 29.95 1013.0
21 19:52 S 12 10.00 Fair CLR 88 71.1 57% 94 29.97 1013.6
21 18:52 S 15 G 25 10.00 Fair CLR 90 71.1 93 87.1 54% 96 29.97 1013.7
21 17:52 S 14 G 24 10.00 Fair CLR 91 72 54% 99 29.99 1014.3
21 16:52 S 14 G 24 10.00 Partly Cloudy SCT049 91.9 73 54% 101 30.02 1015.2
21 15:52 S 14 10.00 Fair CLR 91.9 72 52% 100 30.04 1015.9
21 14:52 SW 17 G 28 10.00 Fair CLR 91.9 72 52% 100 30.06 1016.7
21 13:52 SW 15 G 22 10.00 A Few Clouds FEW044 90 73 58% 98 30.08 1017.6
21 12:52 S 13 10.00 Partly Cloudy FEW036 SCT060 89.1 73 89.1 75 59% 97 30.1 1018.1
21 11:52 S 13 G 21 10.00 Fair CLR 88 73.9 63% 97 30.12 1018.9
21 10:52 S 9 10.00 Fair CLR 84.9 73.9 70% 92 30.14 1019.4
21 09:52 SW 10 10.00 Fair CLR 82 73 74% 87 30.14 1019.6
21 08:52 S 8 10.00 Fair CLR 79 72 79% 82 30.15 1019.9
21 07:52 S 3 10.00 Fair CLR 78.1 72 82% 80 30.16 1020.0
21 06:52 Calm 10.00 Overcast OVC120 75 71.1 75.9 71.1 88% 75 30.16 1020.1
21 05:52 SW 3 10.00 Fair CLR 73.9 70 88% 30.15 1019.8
21 04:52 Calm 10.00 Fair CLR 72 69.1 91% 30.15 1019.7
21 03:52 Calm 10.00 Fair CLR 75 69.1 82% 75 30.15 1019.9
21 02:52 Calm 10.00 Fair CLR 73 69.1 87% 30.16 1020.3
21 01:52 Calm 10.00 Fair CLR 73 69.1 87% 30.17 1020.5
21 00:52 S 3 10.00 Mostly Cloudy BKN095 75.9 69.1 88 73.9 79% 77 30.18 1020.8
20 23:52 W 3 10.00 Fair CLR 75.9 69.1 79% 77 30.17 1020.6
20 22:52 Calm 10.00 Fair CLR 77 70 79% 79 30.16 1020.1
20 21:52 S 3 10.00 Fair CLR 80.1 70 71% 83 30.14 1019.5
20 20:52 S 3 10.00 Fair CLR 82.9 71.1 67% 88 30.12 1019.0
20 19:52 S 9 10.00 Fair CLR 86 71.1 61% 92 30.12 1019.0
20 18:52 S 10 10.00 Fair CLR 88 70 91 87.1 55% 93 30.12 1018.9
20 17:52 S 13 10.00 Fair CLR 89.1 70 53% 94 30.14 1019.4
20 16:52 S 9 G 22 10.00 A Few Clouds FEW049 90 71.1 54% 96 30.16 1020.2
20 15:52 S 12 10.00 Partly Cloudy FEW047 FEW060 SCT075 90 71.1 54% 96 30.18 1020.9
20 14:52 S 8 10.00 Mostly Cloudy SCT046 BKN055 89.1 72 57% 96 30.2 1021.6
20 13:52 S 12 G 18 10.00 Partly Cloudy FEW042 SCT050 89.1 71.1 55% 95 30.22 1022.2
20 12:52 S 8 10.00 Partly Cloudy SCT037 SCT048 87.1 71.1 87.1 72 59% 93 30.24 1022.8
20 11:52 S 8 10.00 Fair CLR 84 72 67% 90 30.24 1023.2
20 10:52 S 8 10.00 Partly Cloudy SCT014 81 73 77% 86 30.25 1023.5
20 09:52 S 6 10.00 Mostly Cloudy BKN010 77 72 85% 78 30.25 1023.6
20 08:52 SE 7 10.00 Overcast OVC006 73.9 71.1 91% 30.25 1023.5
20 07:52 SE 6 8.00 Overcast OVC004 73 71.1 94% 30.24 1023.1
20 06:52 E 6 4.00 Fog/Mist OVC003 72 70 72 71.1 94% 30.23 1022.8 0.5
20 05:52 E 3 10.00 Overcast OVC004 72 70 94% 30.23 1022.7
20 04:52 NE 3 8.00 Overcast OVC004 72 70 94% 30.22 1022.5 0.01
20 03:52 E 10 0.75 Heavy Rain Fog/Mist BKN005 BKN016 OVC049 72 70 94% 30.21 1022.3 0.49 0.49
20 02:52 NE 5 10.00 Overcast OVC005 72 69.1 91% 30.21 1022.2
20 01:52 NE 5 5.00 Fog/Mist OVC005 72 69.1 91% 30.23 1023.0
20 00:52 NE 6 10.00 Overcast OVC007 72 69.1 75.9 72 91% 30.23 1023.0
19 23:52 NE 5 10.00 Overcast FEW010 BKN060 OVC075 72 69.1 91% 30.23 1023.0
19 22:52 E 3 10.00 Mostly Cloudy BKN012 BKN070 72 68 87% 30.23 1022.9
19 21:52 E 7 10.00 Mostly Cloudy BKN030 BKN070 72 68 87% 30.2 1021.8
19 20:52 E 5 10.00 A Few Clouds FEW018 FEW035 73 66.9 81% 30.19 1021.5
19 19:52 NE 7 10.00 Overcast FEW017 BKN038 OVC075 75 66.9 76% 76 30.18 1021.3
19 18:52 E 9 10.00 Partly Cloudy SCT028 75.9 66.9 78.1 73.9 74% 77 30.17 1021.0 0.02
19 17:52 E 8 10.00 Mostly Cloudy FEW020 BKN029 77 68 74% 79 30.17 1021.1
19 16:52 E 8 10.00 Partly Cloudy FEW021 SCT100 77 69.1 77% 79 30.17 1021.0
19 15:52 E 8 10.00 Overcast OVC100 75 69.1 82% 75 30.17 1020.7 0.02
19 14:52 NE 6 10.00 Overcast SCT013 BKN019 OVC090 75 69.1 82% 75 30.19 1021.4
19 13:52 E 8 10.00 Light Rain BKN110 73.9 70 88% 30.18 1021.1 0.02
19 12:52 E 5 10.00 Light Rain FEW012 BKN080 OVC120 73.9 69.1 73.9 69.1 85% 30.2 1022.1 0.03
19 11:52 NE 3 10.00 Mostly Cloudy BKN060 BKN110 73 68 84% 30.2 1021.8
19 10:52 Vrbl 5 10.00 Mostly Cloudy SCT009 BKN065 72 68 87% 30.18 1020.9
19 09:52 E 12 10.00 Mostly Cloudy FEW007 BKN032 BKN065 73 69.1 87% 30.17 1020.9 0.03
19 08:52 N 6 10.00 Mostly Cloudy FEW023 SCT029 BKN075 71.1 69.1 94% 30.16 1020.3
19 07:52 N 3 10.00 Overcast OVC021 70 66.9 90% 30.12 1018.9 0.03
19 06:52 NW 5 10.00 Partly Cloudy SCT120 69.1 66.9 70 69.1 93% 30.1 1018.2 0.01 0.31
19 05:52 E 7 10.00 Light Rain CLR 69.1 66.9 93% 30.04 1016.1 0.02
19 04:52 NE 6 9.00 Light Rain BKN110 69.1 66.9 93% 30.04 1016.2 0.04
Date Time (cdt) Wind (mph) Vis. (mi.) Weather Sky Cond. Air Dwpt Max. Min. Relative Humidity Wind Chill (°F) Heat Index (°F) altimeter (in) sea level (mb) 1 hr 3 hr 6 hr
6 hour
Temperature (ºF) Pressure Precipitation (in)